Time,TemperatureF,DewpointF,PressureIn,WindDirection,WindDirectionDegrees,WindSpeedMPH,WindSpeedGustMPH,Humidity,HourlyPrecipIn,Conditions,Clouds,dailyrainin,SoftwareType,DateUTC
2013-05-18 00:00:00,66.7,58.9,29.83,SE,138,10.0,10.0,76,0.00,,,0.00,Wunderground v.1.15,2013-05-18 05:00:00,
2013-05-18 00:10:00,65.8,58.7,29.84,SE,142,9.0,30.0,78,0.00,,,0.00,Wunderground v.1.15,2013-05-18 05:10:00,
2013-05-18 00:15:00,65.8,58.7,29.84,SE,141,9.0,30.0,78,0.00,,,0.00,Wunderground v.1.15,2013-05-18 05:15:00,
2013-05-18 00:20:00,65.6,58.9,29.84,SE,138,10.0,30.0,79,0.00,,,0.00,Wunderground v.1.15,2013-05-18 05:20:00,
2013-05-18 00:25:00,65.3,58.6,29.84,SE,140,10.0,30.0,79,0.00,,,0.00,Wunderground v.1.15,2013-05-18 05:25:00,
2013-05-18 00:30:00,65.2,58.9,29.84,SE,142,10.0,30.0,80,0.00,,,0.00,Wunderground v.1.15,2013-05-18 05:30:00,
2013-05-18 00:35:00,65.2,58.9,29.84,SE,140,11.0,30.0,80,0.00,,,0.00,Wunderground v.1.15,2013-05-18 05:35:00,
2013-05-18 00:45:00,64.9,58.6,29.84,SE,139,11.0,30.0,80,0.00,,,0.00,Wunderground v.1.15,2013-05-18 05:45:00,
2013-05-18 00:50:00,64.7,58.7,29.83,SE,140,11.0,11.0,81,0.00,,,0.00,Wunderground v.1.15,2013-05-18 05:50:00,
2013-05-18 00:55:00,64.5,58.9,29.83,SE,132,11.0,30.0,82,0.00,,,0.00,Wunderground v.1.15,2013-05-18 05:55:00,
2013-05-18 01:00:00,64.3,58.7,29.83,SE,135,12.0,30.0,82,0.00,,,0.00,Wunderground v.1.15,2013-05-18 06:00:00,
2013-05-18 01:05:00,64.3,58.7,29.83,SE,140,12.0,30.0,82,0.00,,,0.00,Wunderground v.1.15,2013-05-18 06:05:00,
2013-05-18 01:15:00,64.3,59.0,29.84,SE,140,11.0,30.0,83,0.00,,,0.00,Wunderground v.1.15,2013-05-18 06:15:00,
2013-05-18 01:20:00,64.1,58.8,29.84,SE,134,10.0,30.0,83,0.00,,,0.00,Wunderground v.1.15,2013-05-18 06:20:00,
2013-05-18 01:25:00,64.1,58.8,29.84,SE,135,11.0,30.0,83,0.00,,,0.00,Wunderground v.1.15,2013-05-18 06:25:00,
2013-05-18 01:30:00,64.0,59.1,29.84,SE,136,11.0,11.0,84,0.00,,,0.00,Wunderground v.1.15,2013-05-18 06:30:00,
2013-05-18 01:35:00,64.0,59.1,29.83,SE,137,11.0,30.0,84,0.00,,,0.00,Wunderground v.1.15,2013-05-18 06:35:00,
2013-05-18 01:40:00,63.9,59.0,29.83,SE,138,10.0,30.0,84,0.00,,,0.00,Wunderground v.1.15,2013-05-18 06:40:00,
2013-05-18 01:45:00,63.8,59.2,29.83,SE,143,10.0,30.0,85,0.00,,,0.00,Wunderground v.1.15,2013-05-18 06:45:00,
2013-05-18 01:50:00,64.0,59.4,29.83,SE,136,11.0,30.0,85,0.00,,,0.00,Wunderground v.1.15,2013-05-18 06:50:00,
2013-05-18 01:55:00,64.1,59.2,29.83,SSE,148,12.0,30.0,84,0.00,,,0.00,Wunderground v.1.15,2013-05-18 06:55:00,
2013-05-18 02:00:00,64.0,59.4,29.83,SSE,147,12.0,12.0,85,0.00,,,0.00,Wunderground v.1.15,2013-05-18 07:00:00,
2013-05-18 02:05:00,63.9,59.3,29.83,SE,146,12.0,13.0,85,0.00,,,0.00,Wunderground v.1.15,2013-05-18 07:05:00,
2013-05-18 02:10:00,63.7,59.1,29.83,SSE,150,12.0,12.0,85,0.00,,,0.00,Wunderground v.1.15,2013-05-18 07:10:00,
2013-05-18 02:20:00,63.7,59.1,29.83,SSE,156,12.0,12.0,85,0.00,,,0.00,Wunderground v.1.15,2013-05-18 07:20:00,
2013-05-18 02:25:00,63.6,59.0,29.83,SSE,149,11.0,30.0,85,0.00,,,0.00,Wunderground v.1.15,2013-05-18 07:25:00,
2013-05-18 02:30:00,63.5,59.2,29.83,SSE,149,11.0,30.0,86,0.00,,,0.00,Wunderground v.1.15,2013-05-18 07:30:00,
2013-05-18 02:35:00,63.4,59.1,29.82,SSE,152,11.0,30.0,86,0.00,,,0.00,Wunderground v.1.15,2013-05-18 07:35:00,
2013-05-18 02:40:00,63.2,58.9,29.82,SSE,152,11.0,30.0,86,0.00,,,0.00,Wunderground v.1.15,2013-05-18 07:40:00,
2013-05-18 02:45:00,63.2,59.3,29.82,SSE,152,11.0,30.0,87,0.00,,,0.00,Wunderground v.1.15,2013-05-18 07:45:00,
2013-05-18 02:55:00,63.5,59.6,29.81,SE,144,13.0,30.0,87,0.00,,,0.00,Wunderground v.1.15,2013-05-18 07:55:00,
2013-05-18 03:00:00,63.5,59.6,29.81,SE,142,14.0,30.0,87,0.00,,,0.00,Wunderground v.1.15,2013-05-18 08:00:00,
2013-05-18 03:05:00,63.4,59.5,29.81,SE,146,14.0,30.0,87,0.00,,,0.00,Wunderground v.1.15,2013-05-18 08:05:00,
2013-05-18 03:10:00,63.2,59.3,29.81,SSE,147,13.0,30.0,87,0.00,,,0.00,Wunderground v.1.15,2013-05-18 08:10:00,
2013-05-18 03:15:00,63.2,59.3,29.81,SSE,155,13.0,30.0,87,0.00,,,0.00,Wunderground v.1.15,2013-05-18 08:15:00,
2013-05-18 03:25:00,63.1,59.2,29.81,SSE,153,13.0,30.0,87,0.00,,,0.00,Wunderground v.1.15,2013-05-18 08:25:00,
2013-05-18 03:30:00,62.9,59.3,29.81,SSE,153,12.0,12.0,88,0.00,,,0.00,Wunderground v.1.15,2013-05-18 08:30:00,
2013-05-18 03:35:00,62.6,59.0,29.81,SE,145,11.0,30.0,88,0.00,,,0.00,Wunderground v.1.15,2013-05-18 08:35:00,
2013-05-18 03:40:00,62.5,58.9,29.81,SSE,147,10.0,30.0,88,0.00,,,0.00,Wunderground v.1.15,2013-05-18 08:40:00,
2013-05-18 03:45:00,62.4,58.8,29.82,SSE,151,10.0,30.0,88,0.00,,,0.00,Wunderground v.1.15,2013-05-18 08:45:00,
2013-05-18 03:50:00,62.3,59.0,29.82,SE,146,9.0,30.0,89,0.00,,,0.00,Wunderground v.1.15,2013-05-18 08:50:00,
2013-05-18 04:00:00,62.1,58.8,29.82,SE,140,8.0,30.0,89,0.00,,,0.00,Wunderground v.1.15,2013-05-18 09:00:00,
2013-05-18 04:05:00,62.1,58.8,29.82,SE,140,9.0,30.0,89,0.00,,,0.00,Wunderground v.1.15,2013-05-18 09:05:00,
2013-05-18 04:10:00,61.9,58.6,29.82,SE,140,9.0,9.0,89,0.00,,,0.00,Wunderground v.1.15,2013-05-18 09:10:00,
2013-05-18 04:15:00,61.7,58.4,29.82,SE,140,8.0,30.0,89,0.00,,,0.00,Wunderground v.1.15,2013-05-18 09:15:00,
2013-05-18 04:20:00,61.5,58.5,29.81,SE,142,8.0,30.0,90,0.00,,,0.00,Wunderground v.1.15,2013-05-18 09:20:00,
2013-05-18 04:25:00,61.4,58.4,29.81,SE,146,9.0,30.0,90,0.00,,,0.00,Wunderground v.1.15,2013-05-18 09:25:00,
2013-05-18 04:30:00,61.4,58.4,29.81,SE,146,10.0,30.0,90,0.00,,,0.00,Wunderground v.1.15,2013-05-18 09:30:00,
2013-05-18 04:35:00,61.3,58.7,29.81,SE,146,11.0,30.0,91,0.00,,,0.00,Wunderground v.1.15,2013-05-18 09:35:00,
2013-05-18 04:40:00,61.3,58.3,29.80,SE,142,11.0,30.0,90,0.00,,,0.00,Wunderground v.1.15,2013-05-18 09:40:00,
2013-05-18 04:45:00,61.2,58.6,29.80,SE,144,11.0,30.0,91,0.00,,,0.00,Wunderground v.1.15,2013-05-18 09:45:00,
2013-05-18 04:55:00,60.9,58.3,29.80,SSE,148,10.0,30.0,91,0.00,,,0.00,Wunderground v.1.15,2013-05-18 09:55:00,
2013-05-18 05:00:00,60.7,58.1,29.80,SE,144,10.0,10.0,91,0.00,,,0.00,Wunderground v.1.15,2013-05-18 10:00:00,
2013-05-18 05:05:00,60.6,58.0,29.80,SE,142,9.0,30.0,91,0.00,,,0.00,Wunderground v.1.15,2013-05-18 10:05:00,
2013-05-18 05:10:00,60.5,58.2,29.80,SE,138,9.0,30.0,92,0.00,,,0.00,Wunderground v.1.15,2013-05-18 10:10:00,
2013-05-18 05:15:00,60.5,58.2,29.80,SE,134,9.0,30.0,92,0.00,,,0.00,Wunderground v.1.15,2013-05-18 10:15:00,
2013-05-18 05:20:00,60.4,58.1,29.81,SE,133,9.0,9.0,92,0.00,,,0.00,Wunderground v.1.15,2013-05-18 10:20:00,
2013-05-18 05:25:00,60.5,58.2,29.81,SE,134,8.0,30.0,92,0.00,,,0.00,Wunderground v.1.15,2013-05-18 10:25:00,
2013-05-18 05:35:00,60.4,58.1,29.80,SE,132,8.0,30.0,92,0.00,,,0.00,Wunderground v.1.15,2013-05-18 10:35:00,
2013-05-18 05:40:00,60.3,58.0,29.81,SE,130,8.0,8.0,92,0.00,,,0.00,Wunderground v.1.15,2013-05-18 10:40:00,
2013-05-18 05:45:00,60.1,57.8,29.81,SE,126,8.0,9.0,92,0.00,,,0.00,Wunderground v.1.15,2013-05-18 10:45:00,
2013-05-18 05:50:00,60.0,57.7,29.81,ESE,122,8.0,8.0,92,0.00,,,0.00,Wunderground v.1.15,2013-05-18 10:50:00,
2013-05-18 05:55:00,60.0,58.0,29.81,ESE,121,8.0,30.0,93,0.00,,,0.00,Wunderground v.1.15,2013-05-18 10:55:00,
2013-05-18 06:05:00,60.2,58.2,29.81,ESE,117,4.0,30.0,93,0.00,,,0.00,Wunderground v.1.15,2013-05-18 11:05:00,
2013-05-18 06:10:00,60.2,58.2,29.81,ESE,117,3.0,30.0,93,0.00,,,0.00,Wunderground v.1.15,2013-05-18 11:10:00,
2013-05-18 06:15:00,60.3,58.3,29.82,ESE,117,3.0,30.0,93,0.00,,,0.00,Wunderground v.1.15,2013-05-18 11:15:00,
2013-05-18 06:20:00,60.3,58.3,29.81,ESE,117,4.0,30.0,93,0.00,,,0.00,Wunderground v.1.15,2013-05-18 11:20:00,
2013-05-18 06:25:00,60.3,58.3,29.81,ESE,115,5.0,30.0,93,0.00,,,0.00,Wunderground v.1.15,2013-05-18 11:25:00,
2013-05-18 06:30:00,60.4,58.4,29.81,ESE,109,6.0,30.0,93,0.00,,,0.00,Wunderground v.1.15,2013-05-18 11:30:00,
2013-05-18 06:40:00,60.6,58.6,29.82,ESE,105,5.0,30.0,93,0.00,,,0.00,Wunderground v.1.15,2013-05-18 11:40:00,
2013-05-18 06:45:00,60.8,58.8,29.82,ESE,105,7.0,30.0,93,0.00,,,0.00,Wunderground v.1.15,2013-05-18 11:45:00,
2013-05-18 06:50:00,61.1,59.1,29.82,ESE,109,8.0,30.0,93,0.00,,,0.00,Wunderground v.1.15,2013-05-18 11:50:00,
2013-05-18 06:55:00,61.5,59.5,29.82,ESE,112,9.0,30.0,93,0.00,,,0.00,Wunderground v.1.15,2013-05-18 11:55:00,
2013-05-18 07:00:00,61.8,59.8,29.82,ESE,115,9.0,30.0,93,0.00,,,0.00,Wunderground v.1.15,2013-05-18 12:00:00,
2013-05-18 07:10:00,62.2,59.8,29.82,ESE,116,9.0,9.0,92,0.00,,,0.00,Wunderground v.1.15,2013-05-18 12:10:00,
2013-05-18 07:15:00,62.3,59.9,29.82,ESE,109,8.0,30.0,92,0.00,,,0.00,Wunderground v.1.15,2013-05-18 12:15:00,
2013-05-18 07:20:00,62.3,59.9,29.82,ESE,109,8.0,30.0,92,0.00,,,0.00,Wunderground v.1.15,2013-05-18 12:20:00,
2013-05-18 07:25:00,62.3,59.6,29.82,ESE,107,8.0,30.0,91,0.00,,,0.00,Wunderground v.1.15,2013-05-18 12:25:00,
2013-05-18 07:30:00,62.3,59.9,29.82,ESE,110,8.0,30.0,92,0.00,,,0.00,Wunderground v.1.15,2013-05-18 12:30:00,
2013-05-18 07:35:00,62.5,59.8,29.82,ESE,115,9.0,30.0,91,0.00,,,0.00,Wunderground v.1.15,2013-05-18 12:35:00,
2013-05-18 07:45:00,62.9,60.2,29.82,ESE,115,11.0,30.0,91,0.00,,,0.00,Wunderground v.1.15,2013-05-18 12:45:00,
2013-05-18 07:50:00,63.1,60.4,29.81,ESE,119,11.0,30.0,91,0.00,,,0.00,Wunderground v.1.15,2013-05-18 12:50:00,
2013-05-18 07:55:00,63.7,60.7,29.81,ESE,116,12.0,30.0,90,0.00,,,0.00,Wunderground v.1.15,2013-05-18 12:55:00,
2013-05-18 08:00:00,64.0,61.0,29.81,SE,130,13.0,13.0,90,0.00,,,0.00,Wunderground v.1.15,2013-05-18 13:00:00,
2013-05-18 08:05:00,64.1,60.8,29.81,SE,126,13.0,30.0,89,0.00,,,0.00,Wunderground v.1.15,2013-05-18 13:05:00,
2013-05-18 08:10:00,64.2,60.9,29.81,SE,131,13.0,13.0,89,0.00,,,0.00,Wunderground v.1.15,2013-05-18 13:10:00,
2013-05-18 08:15:00,64.3,61.0,29.81,SE,124,13.0,30.0,89,0.00,,,0.00,Wunderground v.1.15,2013-05-18 13:15:00,
2013-05-18 08:20:00,64.4,61.1,29.81,SE,139,13.0,30.0,89,0.00,,,0.00,Wunderground v.1.15,2013-05-18 13:20:00,
2013-05-18 08:25:00,64.5,61.2,29.81,SE,135,14.0,30.0,89,0.00,,,0.00,Wunderground v.1.15,2013-05-18 13:25:00,
2013-05-18 08:30:00,64.7,61.4,29.80,SE,130,14.0,30.0,89,0.00,,,0.00,Wunderground v.1.15,2013-05-18 13:30:00,
2013-05-18 08:35:00,65.0,61.7,29.80,SE,142,15.0,30.0,89,0.00,,,0.00,Wunderground v.1.15,2013-05-18 13:35:00,
2013-05-18 08:40:00,65.2,61.9,29.81,SE,131,16.0,16.0,89,0.00,,,0.00,Wunderground v.1.15,2013-05-18 13:40:00,
2013-05-18 08:50:00,65.3,62.0,29.80,SSE,150,15.0,30.0,89,0.00,,,0.00,Wunderground v.1.15,2013-05-18 13:50:00,
2013-05-18 08:55:00,65.4,62.1,29.80,SE,141,15.0,30.0,89,0.00,,,0.00,Wunderground v.1.15,2013-05-18 13:55:00,
2013-05-18 09:00:00,65.5,62.2,29.80,SSE,153,16.0,16.0,89,0.00,,,0.00,Wunderground v.1.15,2013-05-18 14:00:00,
2013-05-18 09:05:00,65.9,62.6,29.80,SE,133,16.0,30.0,89,0.00,,,0.00,Wunderground v.1.15,2013-05-18 14:05:00,
2013-05-18 09:10:00,66.2,62.9,29.80,SE,140,16.0,30.0,89,0.00,,,0.00,Wunderground v.1.15,2013-05-18 14:10:00,
2013-05-18 09:15:00,66.7,63.0,29.80,SE,144,17.0,30.0,88,0.00,,,0.00,Wunderground v.1.15,2013-05-18 14:15:00,
2013-05-18 09:20:00,66.5,62.8,29.80,SSE,148,17.0,17.0,88,0.00,,,0.00,Wunderground v.1.15,2013-05-18 14:20:00,
2013-05-18 09:25:00,67.0,63.0,29.80,SE,146,16.0,30.0,87,0.00,,,0.00,Wunderground v.1.15,2013-05-18 14:25:00,
2013-05-18 09:30:00,67.1,63.1,29.80,SE,145,16.0,30.0,87,0.00,,,0.00,Wunderground v.1.15,2013-05-18 14:30:00,
2013-05-18 09:35:00,67.3,63.3,29.81,SSE,150,17.0,30.0,87,0.00,,,0.00,Wunderground v.1.15,2013-05-18 14:35:00,
2013-05-18 09:40:00,67.4,63.4,29.81,SE,140,17.0,17.0,87,0.00,,,0.00,Wunderground v.1.15,2013-05-18 14:40:00,
2013-05-18 09:50:00,67.9,63.9,29.81,SE,143,15.0,30.0,87,0.00,,,0.00,Wunderground v.1.15,2013-05-18 14:50:00,
2013-05-18 09:55:00,67.9,63.9,29.81,SE,128,15.0,30.0,87,0.00,,,0.00,Wunderground v.1.15,2013-05-18 14:55:00,
2013-05-18 10:00:00,68.0,63.7,29.81,SE,133,15.0,30.0,86,0.00,,,0.00,Wunderground v.1.15,2013-05-18 15:00:00,
2013-05-18 10:05:00,68.1,64.1,29.81,SE,136,13.0,30.0,87,0.00,,,0.00,Wunderground v.1.15,2013-05-18 15:05:00,
2013-05-18 10:10:00,68.2,63.9,29.81,SE,143,13.0,30.0,86,0.00,,,0.00,Wunderground v.1.15,2013-05-18 15:10:00,
2013-05-18 10:15:00,68.3,63.9,29.81,SE,135,13.0,30.0,86,0.00,,,0.00,Wunderground v.1.15,2013-05-18 15:15:00,
2013-05-18 10:20:00,68.6,64.2,29.81,SE,133,13.0,30.0,86,0.00,,,0.00,Wunderground v.1.15,2013-05-18 15:20:00,
2013-05-18 10:30:00,69.2,64.5,29.81,SE,128,13.0,30.0,85,0.00,,,0.00,Wunderground v.1.15,2013-05-18 15:30:00,
2013-05-18 10:35:00,69.4,64.7,29.81,SE,129,13.0,30.0,85,0.00,,,0.00,Wunderground v.1.15,2013-05-18 15:35:00,
2013-05-18 10:40:00,69.5,65.1,29.81,ESE,116,14.0,14.0,86,0.00,,,0.00,Wunderground v.1.15,2013-05-18 15:40:00,
2013-05-18 10:45:00,69.8,65.1,29.80,SE,132,15.0,19.0,85,0.00,,,0.00,Wunderground v.1.15,2013-05-18 15:45:00,
2013-05-18 10:50:00,70.0,65.3,29.80,SE,131,16.0,30.0,85,0.00,,,0.00,Wunderground v.1.15,2013-05-18 15:50:00,
2013-05-18 11:00:00,70.5,65.8,29.80,SE,142,16.0,16.0,85,0.00,,,0.00,Wunderground v.1.15,2013-05-18 16:00:00,
2013-05-18 11:05:00,70.9,65.8,29.79,ESE,119,17.0,19.0,84,0.00,,,0.00,Wunderground v.1.15,2013-05-18 16:05:00,
2013-05-18 11:10:00,71.6,66.2,29.79,SE,139,16.0,30.0,83,0.00,,,0.00,Wunderground v.1.15,2013-05-18 16:10:00,
2013-05-18 11:15:00,71.3,65.9,29.79,SE,143,17.0,30.0,83,0.00,,,0.00,Wunderground v.1.15,2013-05-18 16:15:00,
2013-05-18 11:20:00,71.6,65.8,29.78,SE,125,18.0,18.0,82,0.00,,,0.00,Wunderground v.1.15,2013-05-18 16:20:00,
2013-05-18 11:25:00,72.3,66.1,29.78,SE,138,18.0,30.0,81,0.00,,,0.00,Wunderground v.1.15,2013-05-18 16:25:00,
2013-05-18 11:30:00,72.3,66.5,29.78,SE,132,18.0,18.0,82,0.00,,,0.00,Wunderground v.1.15,2013-05-18 16:30:00,
2013-05-18 11:35:00,72.5,66.3,29.78,SE,134,19.0,19.0,81,0.00,,,0.00,Wunderground v.1.15,2013-05-18 16:35:00,
2013-05-18 11:40:00,73.4,66.5,29.78,SE,137,18.0,30.0,79,0.00,,,0.00,Wunderground v.1.15,2013-05-18 16:40:00,
2013-05-18 11:45:00,73.4,66.5,29.78,SE,144,18.0,30.0,79,0.00,,,0.00,Wunderground v.1.15,2013-05-18 16:45:00,
2013-05-18 11:50:00,73.1,66.6,29.78,SE,146,19.0,19.0,80,0.00,,,0.00,Wunderground v.1.15,2013-05-18 16:50:00,
2013-05-18 12:00:00,73.3,66.8,29.78,SE,140,19.0,19.0,80,0.00,,,0.00,Wunderground v.1.15,2013-05-18 17:00:00,
2013-05-18 12:05:00,73.4,66.9,29.78,SE,144,19.0,22.0,80,0.00,,,0.00,Wunderground v.1.15,2013-05-18 17:05:00,
2013-05-18 12:10:00,73.7,67.1,29.78,SE,136,19.0,19.0,80,0.00,,,0.00,Wunderground v.1.15,2013-05-18 17:10:00,
2013-05-18 12:15:00,74.5,67.6,29.77,SE,138,18.0,30.0,79,0.00,,,0.00,Wunderground v.1.15,2013-05-18 17:15:00,
2013-05-18 12:20:00,74.9,67.2,29.77,SE,126,18.0,30.0,77,0.00,,,0.00,Wunderground v.1.15,2013-05-18 17:20:00,
2013-05-18 12:25:00,74.4,67.5,29.77,SE,128,19.0,30.0,79,0.00,,,0.00,Wunderground v.1.15,2013-05-18 17:25:00,
2013-05-18 12:35:00,75.1,67.4,29.77,SE,128,20.0,30.0,77,0.00,,,0.00,Wunderground v.1.15,2013-05-18 17:35:00,
2013-05-18 12:40:00,75.3,67.6,29.76,SE,126,20.0,30.0,77,0.00,,,0.00,Wunderground v.1.15,2013-05-18 17:40:00,
2013-05-18 12:45:00,76.2,68.1,29.76,SE,129,19.0,30.0,76,0.00,,,0.00,Wunderground v.1.15,2013-05-18 17:45:00,
2013-05-18 12:50:00,76.4,67.9,29.76,ESE,119,20.0,30.0,75,0.00,,,0.00,Wunderground v.1.15,2013-05-18 17:50:00,
2013-05-18 12:55:00,75.3,67.2,29.76,SE,126,21.0,30.0,76,0.00,,,0.00,Wunderground v.1.15,2013-05-18 17:55:00,
2013-05-18 13:05:00,75.5,67.4,29.76,SE,139,20.0,30.0,76,0.00,,,0.00,Wunderground v.1.15,2013-05-18 18:05:00,
2013-05-18 13:10:00,75.7,67.6,29.76,SE,135,20.0,30.0,76,0.00,,,0.00,Wunderground v.1.15,2013-05-18 18:10:00,
2013-05-18 13:15:00,75.6,67.5,29.76,SE,132,20.0,30.0,76,0.00,,,0.00,Wunderground v.1.15,2013-05-18 18:15:00,
2013-05-18 13:20:00,75.4,67.3,29.76,ESE,110,20.0,20.0,76,0.00,,,0.00,Wunderground v.1.15,2013-05-18 18:20:00,
2013-05-18 13:25:00,75.2,67.5,29.76,SE,140,19.0,30.0,77,0.00,,,0.00,Wunderground v.1.15,2013-05-18 18:25:00,
2013-05-18 13:30:00,75.3,67.6,29.76,SE,138,18.0,30.0,77,0.00,,,0.00,Wunderground v.1.15,2013-05-18 18:30:00,
2013-05-18 13:40:00,75.9,67.4,29.76,SE,132,18.0,30.0,75,0.00,,,0.00,Wunderground v.1.15,2013-05-18 18:40:00,
2013-05-18 13:45:00,76.1,68.0,29.75,SE,139,19.0,30.0,76,0.00,,,0.00,Wunderground v.1.15,2013-05-18 18:45:00,
2013-05-18 13:50:00,76.0,67.5,29.75,SE,143,20.0,30.0,75,0.00,,,0.00,Wunderground v.1.15,2013-05-18 18:50:00,
2013-05-18 13:55:00,76.1,67.6,29.75,SE,145,19.0,30.0,75,0.00,,,0.00,Wunderground v.1.15,2013-05-18 18:55:00,
2013-05-18 14:00:00,76.1,68.0,29.75,SSE,147,20.0,30.0,76,0.00,,,0.00,Wunderground v.1.15,2013-05-18 19:00:00,
2013-05-18 14:10:00,76.5,68.0,29.74,SSE,150,21.0,30.0,75,0.00,,,0.00,Wunderground v.1.15,2013-05-18 19:10:00,
2013-05-18 14:15:00,76.5,68.0,29.74,SSE,153,22.0,30.0,75,0.00,,,0.00,Wunderground v.1.15,2013-05-18 19:15:00,
2013-05-18 14:20:00,76.2,67.7,29.75,SSE,152,22.0,22.0,75,0.00,,,0.00,Wunderground v.1.15,2013-05-18 19:20:00,
2013-05-18 14:25:00,76.1,68.0,29.75,SE,138,22.0,23.0,76,0.00,,,0.00,Wunderground v.1.15,2013-05-18 19:25:00,
2013-05-18 14:30:00,75.9,67.8,29.76,SSE,159,22.0,30.0,76,0.00,,,0.00,Wunderground v.1.15,2013-05-18 19:30:00,
2013-05-18 14:35:00,75.6,67.9,29.76,SSE,161,21.0,30.0,77,0.00,,,0.00,Wunderground v.1.15,2013-05-18 19:35:00,
2013-05-18 14:45:00,76.1,68.0,29.75,SSE,157,18.0,30.0,76,0.00,,,0.00,Wunderground v.1.15,2013-05-18 19:45:00,
2013-05-18 14:50:00,75.9,67.8,29.76,SSE,163,19.0,30.0,76,0.00,,,0.00,Wunderground v.1.15,2013-05-18 19:50:00,
2013-05-18 14:55:00,75.7,68.0,29.76,SSE,168,20.0,30.0,77,0.00,,,0.00,Wunderground v.1.15,2013-05-18 19:55:00,
2013-05-18 15:00:00,75.3,67.6,29.76,SSE,160,18.0,18.0,77,0.00,,,0.00,Wunderground v.1.15,2013-05-18 20:00:00,
2013-05-18 15:05:00,75.2,67.5,29.75,SSE,157,16.0,30.0,77,0.00,,,0.00,Wunderground v.1.15,2013-05-18 20:05:00,
2013-05-18 15:15:00,75.2,67.9,29.75,SSE,160,17.0,18.0,78,0.00,,,0.00,Wunderground v.1.15,2013-05-18 20:15:00,
2013-05-18 15:20:00,75.8,68.1,29.75,SSE,163,18.0,18.0,77,0.00,,,0.00,Wunderground v.1.15,2013-05-18 20:20:00,
2013-05-18 15:25:00,75.6,68.3,29.75,SSE,153,18.0,30.0,78,0.00,,,0.00,Wunderground v.1.15,2013-05-18 20:25:00,
2013-05-18 15:30:00,75.6,69.0,29.74,SSE,165,18.0,18.0,80,0.00,,,0.00,Wunderground v.1.15,2013-05-18 20:30:00,
2013-05-18 15:35:00,75.8,69.2,29.74,SSE,157,16.0,19.0,80,0.00,,,0.00,Wunderground v.1.15,2013-05-18 20:35:00,
2013-05-18 15:40:00,76.6,69.2,29.73,SSE,160,16.0,16.0,78,0.00,,,0.00,Wunderground v.1.15,2013-05-18 20:40:00,
2013-05-18 15:50:00,76.4,69.0,29.72,SE,142,18.0,30.0,78,0.00,,,0.00,Wunderground v.1.15,2013-05-18 20:50:00,
2013-05-18 15:55:00,76.6,68.8,29.70,SE,138,16.0,30.0,77,0.00,,,0.00,Wunderground v.1.15,2013-05-18 20:55:00,
2013-05-18 16:00:00,76.9,68.4,29.69,SE,132,13.0,30.0,75,0.00,,,0.00,Wunderground v.1.15,2013-05-18 21:00:00,
2013-05-18 16:05:00,77.2,68.7,29.70,SE,143,13.0,30.0,75,0.00,,,0.00,Wunderground v.1.15,2013-05-18 21:05:00,
2013-05-18 16:10:00,77.5,68.6,29.70,SE,144,16.0,16.0,74,0.00,,,0.00,Wunderground v.1.15,2013-05-18 21:10:00,
2013-05-18 16:15:00,78.3,68.9,29.71,SE,142,16.0,23.0,73,0.00,,,0.00,Wunderground v.1.15,2013-05-18 21:15:00,
2013-05-18 16:20:00,78.6,68.4,29.70,SE,136,18.0,30.0,71,0.00,,,0.00,Wunderground v.1.15,2013-05-18 21:20:00,
2013-05-18 16:25:00,78.3,68.1,29.70,SE,144,21.0,30.0,71,0.00,,,0.00,Wunderground v.1.15,2013-05-18 21:25:00,
2013-05-18 16:30:00,78.2,68.4,29.70,SE,142,21.0,21.0,72,0.00,,,0.00,Wunderground v.1.15,2013-05-18 21:30:00,
2013-05-18 16:40:00,78.9,68.7,29.69,SE,130,19.0,30.0,71,0.00,,,0.00,Wunderground v.1.15,2013-05-18 21:40:00,
2013-05-18 16:45:00,79.3,68.7,29.68,SSE,153,18.0,30.0,70,0.00,,,0.00,Wunderground v.1.15,2013-05-18 21:45:00,
2013-05-18 16:50:00,80.6,69.1,29.68,South,170,19.0,30.0,68,0.00,,,0.00,Wunderground v.1.15,2013-05-18 21:50:00,
2013-05-18 16:55:00,81.7,68.3,29.68,SSE,153,21.0,30.0,64,0.00,,,0.00,Wunderground v.1.15,2013-05-18 21:55:00,
2013-05-18 17:00:00,82.1,68.3,29.67,SSE,153,21.0,30.0,63,0.00,,,0.00,Wunderground v.1.15,2013-05-18 22:00:00,
2013-05-18 17:05:00,82.3,68.4,29.67,SSE,149,22.0,30.0,63,0.00,,,0.00,Wunderground v.1.15,2013-05-18 22:05:00,
2013-05-18 17:10:00,82.6,67.8,29.67,SE,134,22.0,30.0,61,0.00,,,0.00,Wunderground v.1.15,2013-05-18 22:10:00,
2013-05-18 17:20:00,82.7,67.9,29.66,SE,144,22.0,30.0,61,0.00,,,0.00,Wunderground v.1.15,2013-05-18 22:20:00,
2013-05-18 17:25:00,82.5,68.6,29.66,SE,144,24.0,30.0,63,0.00,,,0.00,Wunderground v.1.15,2013-05-18 22:25:00,
2013-05-18 17:30:00,81.9,68.1,29.65,SE,131,22.0,30.0,63,0.00,,,0.00,Wunderground v.1.15,2013-05-18 22:30:00,
2013-05-18 17:35:00,82.5,68.2,29.65,SE,127,21.0,30.0,62,0.00,,,0.00,Wunderground v.1.15,2013-05-18 22:35:00,
2013-05-18 17:40:00,83.0,68.6,29.65,SE,140,21.0,21.0,62,0.00,,,0.00,Wunderground v.1.15,2013-05-18 22:40:00,
2013-05-18 17:45:00,83.5,68.6,29.65,SE,134,21.0,30.0,61,0.00,,,0.00,Wunderground v.1.15,2013-05-18 22:45:00,
2013-05-18 17:55:00,82.6,69.2,29.64,SE,135,21.0,30.0,64,0.00,,,0.00,Wunderground v.1.15,2013-05-18 22:55:00,
2013-05-18 18:00:00,82.9,69.0,29.64,SE,139,21.0,30.0,63,0.00,,,0.00,Wunderground v.1.15,2013-05-18 23:00:00,
2013-05-18 18:05:00,82.7,68.8,29.64,ESE,121,20.0,30.0,63,0.00,,,0.00,Wunderground v.1.15,2013-05-18 23:05:00,
2013-05-18 18:10:00,81.6,67.8,29.65,SE,137,21.0,21.0,63,0.00,,,0.00,Wunderground v.1.15,2013-05-18 23:10:00,
2013-05-18 18:15:00,81.2,67.9,29.65,SE,144,23.0,23.0,64,0.00,,,0.00,Wunderground v.1.15,2013-05-18 23:15:00,
2013-05-18 18:20:00,80.9,68.0,29.64,SSE,148,22.0,30.0,65,0.00,,,0.00,Wunderground v.1.15,2013-05-18 23:20:00,
2013-05-18 18:30:00,80.7,68.3,29.64,SE,127,20.0,20.0,66,0.00,,,0.00,Wunderground v.1.15,2013-05-18 23:30:00,
2013-05-18 18:35:00,80.5,68.1,29.64,SE,133,20.0,30.0,66,0.00,,,0.00,Wunderground v.1.15,2013-05-18 23:35:00,
2013-05-18 18:40:00,80.5,68.5,29.65,SE,134,20.0,20.0,67,0.00,,,0.00,Wunderground v.1.15,2013-05-18 23:40:00,
2013-05-18 18:45:00,80.5,68.1,29.65,SE,138,19.0,30.0,66,0.00,,,0.00,Wunderground v.1.15,2013-05-18 23:45:00,
2013-05-18 18:50:00,80.3,68.3,29.64,SE,138,19.0,30.0,67,0.00,,,0.00,Wunderground v.1.15,2013-05-18 23:50:00,
2013-05-18 19:00:00,80.3,68.8,29.64,SE,137,18.0,18.0,68,0.00,,,0.00,Wunderground v.1.15,2013-05-19 00:00:00,
2013-05-18 19:05:00,80.2,68.7,29.64,SE,135,16.0,30.0,68,0.00,,,0.00,Wunderground v.1.15,2013-05-19 00:05:00,
2013-05-18 19:10:00,80.0,68.9,29.64,SE,125,16.0,30.0,69,0.00,,,0.00,Wunderground v.1.15,2013-05-19 00:10:00,
2013-05-18 19:15:00,79.9,68.8,29.65,SSE,158,17.0,30.0,69,0.00,,,0.00,Wunderground v.1.15,2013-05-19 00:15:00,
2013-05-18 19:20:00,79.8,68.7,29.66,SE,126,18.0,18.0,69,0.00,,,0.00,Wunderground v.1.15,2013-05-19 00:20:00,
2013-05-18 19:25:00,79.8,68.3,29.65,SSE,150,18.0,20.0,68,0.00,,,0.00,Wunderground v.1.15,2013-05-19 00:25:00,
2013-05-18 19:35:00,79.3,68.2,29.66,SE,145,22.0,22.0,69,0.00,,,0.00,Wunderground v.1.15,2013-05-19 00:35:00,
2013-05-18 19:40:00,78.9,68.3,29.66,SE,136,20.0,20.0,70,0.00,,,0.00,Wunderground v.1.15,2013-05-19 00:40:00,
2013-05-18 19:45:00,78.6,68.4,29.66,SSE,151,19.0,30.0,71,0.00,,,0.00,Wunderground v.1.15,2013-05-19 00:45:00,
2013-05-18 19:50:00,78.5,68.7,29.66,SE,139,18.0,30.0,72,0.00,,,0.00,Wunderground v.1.15,2013-05-19 00:50:00,
2013-05-18 19:55:00,78.4,68.6,29.66,SE,144,18.0,30.0,72,0.00,,,0.00,Wunderground v.1.15,2013-05-19 00:55:00,
2013-05-18 20:05:00,77.9,68.5,29.66,SE,140,14.0,30.0,73,0.00,,,0.00,Wunderground v.1.15,2013-05-19 01:05:00,
2013-05-18 20:10:00,77.7,68.7,29.65,SSE,148,12.0,30.0,74,0.00,,,0.00,Wunderground v.1.15,2013-05-19 01:10:00,
2013-05-18 20:15:00,77.7,68.7,29.67,SSE,151,14.0,30.0,74,0.00,,,0.00,Wunderground v.1.15,2013-05-19 01:15:00,
2013-05-18 20:20:00,77.5,68.6,29.67,SSE,159,14.0,14.0,74,0.00,,,0.00,Wunderground v.1.15,2013-05-19 01:20:00,
2013-05-18 20:25:00,77.3,68.8,29.67,SE,144,12.0,30.0,75,0.00,,,0.00,Wunderground v.1.15,2013-05-19 01:25:00,
2013-05-18 20:30:00,77.1,68.6,29.67,SSE,160,11.0,11.0,75,0.00,,,0.00,Wunderground v.1.15,2013-05-19 01:30:00,
2013-05-18 20:35:00,77.1,68.6,29.67,SSE,162,12.0,14.0,75,0.00,,,0.00,Wunderground v.1.15,2013-05-19 01:35:00,
2013-05-18 20:40:00,76.9,68.8,29.69,South,174,12.0,30.0,76,0.00,,,0.00,Wunderground v.1.15,2013-05-19 01:40:00,
2013-05-18 20:45:00,76.7,68.9,29.73,SW,219,14.0,41.0,77,0.00,,,0.00,Wunderground v.1.15,2013-05-19 01:45:00,
2013-05-18 20:50:00,69.0,55.9,29.74,SW,220,27.0,31.0,63,0.00,,,0.00,Wunderground v.1.15,2013-05-19 01:50:00,
2013-05-18 20:55:00,64.0,57.4,29.72,SW,234,36.0,36.0,79,0.00,,,0.00,Wunderground v.1.15,2013-05-19 01:55:00,
2013-05-18 21:00:00,62.5,57.6,29.74,SW,229,32.0,32.0,84,0.00,,,0.00,Wunderground v.1.15,2013-05-19 02:00:00,
2013-05-18 21:10:00,61.3,58.3,29.73,WSW,238,24.0,30.0,90,0.00,,,0.01,Wunderground v.1.15,2013-05-19 02:10:00,
2013-05-18 21:15:00,61.5,58.2,29.75,SW,224,25.0,30.0,89,0.00,,,0.01,Wunderground v.1.15,2013-05-19 02:15:00,
2013-05-18 21:25:00,62.1,58.5,29.75,SW,219,20.0,30.0,88,0.00,,,0.01,Wunderground v.1.15,2013-05-19 02:25:00,
2013-05-18 21:30:00,62.1,58.5,29.75,South,180,16.0,16.0,88,0.00,,,0.01,Wunderground v.1.15,2013-05-19 02:30:00,
2013-05-18 21:35:00,62.0,58.4,29.73,SSW,206,13.0,30.0,88,0.00,,,0.01,Wunderground v.1.15,2013-05-19 02:35:00,
2013-05-18 21:45:00,62.1,58.5,29.71,SSW,211,12.0,30.0,88,0.00,,,0.01,Wunderground v.1.15,2013-05-19 02:45:00,
2013-05-18 21:50:00,62.8,58.9,29.74,South,178,14.0,30.0,87,0.00,,,0.01,Wunderground v.1.15,2013-05-19 02:50:00,
2013-05-18 21:55:00,62.6,59.0,29.74,SSW,204,16.0,30.0,88,0.00,,,0.02,Wunderground v.1.15,2013-05-19 02:55:00,
2013-05-18 22:00:00,64.0,58.4,29.74,SW,222,17.0,30.0,82,0.00,,,0.02,Wunderground v.1.15,2013-05-19 03:00:00,
2013-05-18 22:05:00,65.7,58.7,29.73,SW,227,17.0,30.0,78,0.00,,,0.02,Wunderground v.1.15,2013-05-19 03:05:00,
2013-05-18 22:15:00,65.4,58.7,29.72,SSE,163,10.0,30.0,79,0.00,,,0.02,Wunderground v.1.15,2013-05-19 03:15:00,
2013-05-18 22:20:00,64.1,58.8,29.71,SSE,147,10.0,30.0,83,0.00,,,0.02,Wunderground v.1.15,2013-05-19 03:20:00,
2013-05-18 22:25:00,63.8,58.9,29.70,SE,142,13.0,30.0,84,0.00,,,0.02,Wunderground v.1.15,2013-05-19 03:25:00,
2013-05-18 22:30:00,63.8,58.9,29.69,SE,140,15.0,15.0,84,0.00,,,0.02,Wunderground v.1.15,2013-05-19 03:30:00,
2013-05-18 22:35:00,64.2,58.2,29.69,SE,139,15.0,30.0,81,0.00,,,0.02,Wunderground v.1.15,2013-05-19 03:35:00,
2013-05-18 22:40:00,64.9,58.2,29.69,SE,139,13.0,13.0,79,0.00,,,0.02,Wunderground v.1.15,2013-05-19 03:40:00,
2013-05-18 22:50:00,67.2,57.5,29.63,SSE,151,19.0,19.0,71,0.00,,,0.03,Wunderground v.1.15,2013-05-19 03:50:00,
2013-05-18 22:55:00,68.8,57.0,29.64,SSE,147,19.0,30.0,66,0.00,,,0.03,Wunderground v.1.15,2013-05-19 03:55:00,
2013-05-18 23:00:00,69.7,57.4,29.65,SE,140,17.0,17.0,65,0.00,,,0.03,Wunderground v.1.15,2013-05-19 04:00:00,
2013-05-18 23:05:00,70.4,54.4,29.66,SE,146,17.0,30.0,57,0.00,,,0.03,Wunderground v.1.15,2013-05-19 04:05:00,
2013-05-18 23:10:00,71.9,55.8,29.66,SE,133,12.0,30.0,57,0.00,,,0.03,Wunderground v.1.15,2013-05-19 04:10:00,
2013-05-18 23:15:00,71.8,55.7,29.64,SE,128,9.0,30.0,57,0.00,,,0.03,Wunderground v.1.15,2013-05-19 04:15:00,
2013-05-18 23:20:00,69.7,56.5,29.64,SE,131,11.0,11.0,63,0.00,,,0.03,Wunderground v.1.15,2013-05-19 04:20:00,
2013-05-18 23:25:00,70.6,56.0,29.64,SSE,161,12.0,22.0,60,0.00,,,0.03,Wunderground v.1.15,2013-05-19 04:25:00,
2013-05-18 23:30:00,73.0,54.9,29.63,SE,146,18.0,30.0,53,0.00,,,0.03,Wunderground v.1.15,2013-05-19 04:30:00,
2013-05-18 23:35:00,71.2,56.1,29.63,ESE,123,26.0,38.0,59,0.00,,,0.03,Wunderground v.1.15,2013-05-19 04:35:00,
2013-05-18 23:40:00,68.8,57.4,29.65,SE,139,30.0,30.0,67,0.00,,,0.03,Wunderground v.1.15,2013-05-19 04:40:00,
2013-05-18 23:45:00,68.1,57.1,29.65,SE,138,29.0,31.0,68,0.00,,,0.03,Wunderground v.1.15,2013-05-19 04:45:00,
2013-05-18 23:55:00,66.5,57.2,29.63,SE,136,28.0,32.0,72,0.00,,,0.03,Wunderground v.1.15,2013-05-19 04:55:00,